This is the latest recevied weather packets stored in our database for station/object VK4CWL-13. If no packets are shown the sender has not sent any weather packets the latest 10 day(s).
| Time | Temp. | Humidity | Pressure | Rain* | Wind** | Luminosity | Snow |
|---|---|---|---|---|---|---|---|
| 1777671012 | 15° C | 89% | 1020.6 hPa | 0 mm | - | - | - |
| 1777670710 | 14.44° C | 90% | 1020.7 hPa | 0 mm | - | - | - |
| 1777670407 | 13.89° C | 91% | 1020.7 hPa | 0 mm | - | - | - |
| 1777670104 | 13.89° C | 91% | 1020.7 hPa | 0 mm | - | - | - |
| 1777669802 | 13.33° C | 92% | 1020.7 hPa | 0 mm | - | - | - |
| 1777669500 | 12.78° C | 91% | 1020.7 hPa | 0 mm | - | - | - |
| 1777669198 | 12.78° C | 90% | 1020.6 hPa | 0 mm | - | - | - |
| 1777668896 | 12.78° C | 90% | 1020.4 hPa | 0 mm | - | - | - |
| 1777668593 | 12.78° C | 89% | 1020.3 hPa | 0 mm | - | - | - |
| 1777668291 | 12.78° C | 89% | 1020.3 hPa | 0 mm | - | - | - |
| 1777667989 | 12.78° C | 88% | 1020.3 hPa | 0 mm | - | - | - |
| 1777667687 | 12.78° C | 88% | 1020.2 hPa | 0 mm | - | - | - |
| 1777667384 | 12.78° C | 88% | 1020.1 hPa | 0 mm | - | - | - |
| 1777667081 | 12.78° C | 88% | 1020 hPa | 0 mm | - | - | - |
| 1777666779 | 12.78° C | 88% | 1020 hPa | 0 mm | - | - | - |
| 1777666477 | 12.78° C | 88% | 1019.9 hPa | 0 mm | - | - | - |
| 1777666175 | 12.78° C | 87% | 1020.1 hPa | 0 mm | - | - | - |
| 1777665873 | 13.33° C | 87% | 1019.9 hPa | 0 mm | - | - | - |
| 1777665571 | 13.33° C | 87% | 1019.8 hPa | 0 mm | - | - | - |
| 1777665269 | 13.33° C | 86% | 1019.8 hPa | 0 mm | - | - | - |
| 1777664966 | 13.33° C | 86% | 1019.7 hPa | 0 mm | - | - | - |
| 1777664664 | 13.33° C | 87% | 1019.7 hPa | 0 mm | - | - | - |
| 1777664362 | 13.33° C | 87% | 1019.8 hPa | 0 mm | - | - | - |
| 1777664059 | 13.89° C | 87% | 1019.7 hPa | 0 mm | - | - | - |
| 1777663757 | 13.89° C | 86% | 1019.8 hPa | 0 mm | - | - | - |
* Rain since midnight (hover to see other rain measurements)
** Current wind speed in m/s (hover to see current wind gust speed)